Springfield, VT

2:22 PM EDT on March 24, 2017 (GMT -0400)
Hartness State

Weather History for KVSF - February, 2014

Change the Weather History Date:

Sunday, February 23, 2014

  Actual Average Record
Temperature  
Mean Temperature 36 °F 25 °F  
Max Temperature 46 °F 35 °F 66 °F (2017)
Min Temperature 25 °F 15 °F -7 °F (1999)
Degree Days  
Heating Degree Days 29 40  
Month to date heating degree days 1032 979  
Since 1 July heating degree days 5457 5251  
Cooling Degree Days 0 0  
Month to date cooling degree days 0  
Year to date cooling degree days 0  
Moisture  
Dew Point 20 °F    
Average Humidity 53    
Maximum Humidity 78    
Minimum Humidity 27    
Precipitation  
Precipitation 0.00 in 0.10 in 0.37 in (2003)
Month to date precipitation 1.39 2.26  
Year to date precipitation 3.68 5.18  
Sea Level Pressure  
Sea Level Pressure 29.88 in    
Wind  
Wind Speed 4 mph (WSW)    
Max Wind Speed 18 mph    
Max Gust Speed 26 mph    
Visibility 10 miles    
Events      
T = Trace of Precipitation, MM = Missing Value Source: NWS Daily Summary

Daily Weather History Graph

Daily Weather History Graph

Search for Another Location

Airport or City:

Trip Planner

Search our weather history database for the weather conditions in past years. The results will help you decide how hot, cold, wet, or windy it might be!

Date:

Astronomy

Feb. 23, 2014 Rise Set
Actual Time 6:36 AM EST 5:31 PM EST
Civil Twilight 6:07 AM EST 6:00 PM EST
Nautical Twilight 5:34 AM EST 6:33 PM EST
Astronomical Twilight 5:01 AM EST 7:06 PM EST
Moon 1:36 AM EST (2/23) 11:26 AM EST (2/23)
Length of Visible Light 11h 53m
Length of Day
10h 55m
Last Quarter, 39% of the Moon is Illuminated
Feb 23
Last Quarter
Mar 1
New
Mar 8
First Quarter
Mar 16
Full
Mar 23
Last Quarter

Hourly Weather History & Observations

Time (EST) Temp. Windchill Dew Point Humidity Pressure Visibility Wind Dir Wind Speed Gust Speed Precip Events Conditions
12:54 AM 39.0 °F 34.0 °F 19.9 °F 46% 29.94 in 10.0 mi West 6.9 mph - N/A   Scattered Clouds
1:54 AM 37.0 °F - 23.0 °F 57% 29.94 in 10.0 mi Calm Calm - N/A   Mostly Cloudy
2:54 AM 37.0 °F 34.5 °F 21.9 °F 54% 29.94 in 10.0 mi SSW 3.5 mph - N/A   Scattered Clouds
3:54 AM 30.9 °F - 23.0 °F 72% 29.94 in 10.0 mi Calm Calm - N/A   Overcast
4:54 AM 30.0 °F - 24.1 °F 79% 29.94 in 10.0 mi Calm Calm - N/A   Overcast
5:54 AM 30.9 °F 27.5 °F 24.1 °F 76% 29.94 in 10.0 mi ENE 3.5 mph - N/A   Overcast
6:54 AM 41.0 °F 34.7 °F 24.1 °F 51% 29.93 in 10.0 mi SW 10.4 mph - N/A   Overcast
7:54 AM 39.9 °F 34.5 °F 25.0 °F 55% 29.95 in 10.0 mi SW 8.1 mph - N/A   Overcast
8:54 AM 41.0 °F 38.0 °F 25.0 °F 53% 29.96 in 10.0 mi SW 4.6 mph - N/A   Overcast
9:54 AM 41.0 °F 36.4 °F 25.0 °F 53% 29.93 in 10.0 mi WSW 6.9 mph - N/A   Overcast
10:54 AM 43.0 °F 36.8 °F 21.0 °F 42% 29.92 in 10.0 mi WSW 11.5 mph - N/A   Overcast
11:54 AM 44.1 °F 39.0 °F 21.0 °F 40% 29.89 in 10.0 mi West 9.2 mph - N/A   Scattered Clouds
12:54 PM 45.0 °F 40.1 °F 18.0 °F 34% 29.86 in 10.0 mi West 9.2 mph - N/A   Clear
1:54 PM 46.0 °F 41.9 °F 15.1 °F 29% 29.85 in 10.0 mi West 8.1 mph - N/A   Overcast
2:54 PM 45.0 °F 41.2 °F 12.0 °F 26% 29.84 in 10.0 mi SW 6.9 mph - N/A   Overcast
3:54 PM 45.0 °F 40.6 °F 14.0 °F 29% 29.83 in 10.0 mi SW 8.1 mph - N/A   Partly Cloudy
4:54 PM 44.1 °F 40.8 °F 12.0 °F 27% 29.83 in 10.0 mi WSW 5.8 mph - N/A   Clear
5:54 PM 39.9 °F - 12.9 °F 33% 29.83 in 10.0 mi Calm Calm - N/A   Clear
6:54 PM 32.0 °F - 21.0 °F 64% 29.82 in 10.0 mi Calm Calm - N/A   Clear
7:54 PM 28.9 °F - 21.9 °F 75% 29.83 in 10.0 mi Calm Calm - N/A   Clear
8:54 PM 28.0 °F - 19.9 °F 72% 29.83 in 10.0 mi Calm Calm - N/A   Clear
9:54 PM 28.0 °F - 21.0 °F 75% 29.82 in 10.0 mi Calm Calm - N/A   Clear
10:54 PM 26.1 °F - 19.9 °F 78% 29.80 in 10.0 mi Calm Calm - N/A   Clear
11:54 PM 28.0 °F - 19.9 °F 72% 29.78 in 10.0 mi Calm Calm - N/A   Clear